Theta_e
332 331 338 345 351 353 354 354 354 354 354 353 353 353 353 352 352 351 351 350 350 349 348 347 347 347 348 348 348 348 349 349 349 349 349 348 348 349 349 350 350 350 351 350 350 350 349 348 349 349 348 347 346 347 347 348 348 348 348 349 349 349 349 349 347 347 347 348 350 350 350 350 351 351 351 351 351 351 351 350 349 348 347 349 352
332 332 339 341 350 353 354 354 354 353 353 353 353 353 353 353 352 351 350 350 349 348 348 347 348 347 347 348 348 348 348 348 348 348 348 348 348 348 349 349 350 349 349 349 349 349 349 349 348 348 347 346 345 345 344 345 345 345 346 347 347 347 347 346 345 344 345 346 347 348 347 349 349 349 350 351 351 352 350 350 349 346 345 351 351
329 332 339 341 348 351 353 354 354 353 353 353 353 352 352 352 351 351 350 349 349 347 347 347 347 347 348 347 347 348 348 348 348 347 347 347 347 348 348 348 349 349 348 348 348 348 347 345 345 344 343 342 341 341 341 341 341 342 343 344 345 345 345 344 342 341 341 342 345 344 343 344 348 348 349 349 349 351 349 349 348 348 346 349 350
330 334 339 342 346 349 353 354 354 353 353 352 352 352 352 352 351 350 349 349 349 348 346 346 347 348 347 347 347 347 347 347 347 347 347 348 348 348 348 348 349 348 348 347 347 345 343 342 341 340 339 339 339 339 338 338 338 338 340 341 342 342 342 341 340 339 341 340 344 341 339 335 339 347 347 348 348 349 348 348 348 348 348 348 349
331 335 339 341 345 346 351 353 354 353 353 353 352 352 352 351 351 350 349 348 348 347 346 347 347 347 346 346 347 347 347 346 346 347 348 348 348 348 347 348 348 348 348 347 347 345 344 343 341 340 338 337 337 337 337 336 335 335 336 337 339 340 339 338 339 340 339 339 342 339 335 336 336 347 347 346 347 347 347 348 347 347 347 348 347
331 335 339 341 343 345 349 352 354 353 353 353 353 352 351 351 350 349 349 349 347 347 346 347 347 347 347 347 347 348 348 346 346 347 348 347 347 348 347 347 348 348 347 347 346 345 344 343 342 341 339 338 336 336 335 335 335 334 334 333 335 337 337 337 340 341 338 338 338 334 334 336 338 340 348 347 346 345 345 347 347 347 347 347 347
332 336 339 341 343 343 345 351 353 353 353 353 352 352 351 351 350 349 349 348 347 347 346 347 348 347 346 348 348 348 348 348 348 347 348 347 347 347 347 347 347 347 347 346 345 345 343 342 341 340 338 336 335 334 334 333 332 332 332 332 333 335 335 338 340 340 337 332 331 334 335 336 336 335 347 347 347 346 345 346 346 347 347 346 346
331 335 338 341 342 343 344 351 353 353 352 353 352 352 351 350 349 349 348 347 346 347 346 348 347 346 347 348 348 348 347 347 347 347 346 347 347 347 346 346 345 347 346 345 344 343 341 341 340 339 337 335 333 332 331 331 330 330 330 333 334 335 336 338 339 340 337 331 334 335 333 333 333 335 346 347 346 346 346 345 346 346 346 344 343
331 334 338 340 341 342 344 348 353 353 352 352 353 352 351 350 349 348 348 347 346 347 347 347 347 347 347 348 348 348 348 347 347 347 347 346 347 346 345 345 345 345 344 344 342 341 340 339 338 338 336 334 332 331 330 330 329 328 331 333 335 336 337 337 339 338 335 334 334 333 332 331 332 334 344 346 345 344 343 343 344 344 344 342 342
330 333 336 339 340 341 343 347 353 353 353 352 352 352 351 350 349 348 347 347 347 347 348 347 348 347 347 348 347 348 348 347 347 347 347 346 346 345 344 344 343 344 343 341 340 340 338 338 337 336 335 333 331 330 329 327 327 329 331 333 335 337 337 337 337 334 331 332 331 330 332 340 331 334 343 345 344 343 342 342 342 340 341 341 342
329 332 335 337 338 341 345 348 351 352 352 352 352 351 351 350 349 348 347 347 347 347 348 347 348 348 348 348 347 348 348 347 347 346 346 346 345 344 343 342 342 341 341 340 339 338 337 337 336 335 334 331 330 328 328 327 325 327 330 332 334 335 335 335 332 328 329 327 325 325 334 341 329 332 342 343 342 341 340 340 341 341 339 339 339
332 332 334 336 337 340 344 347 350 352 351 352 352 352 350 349 349 348 347 347 346 347 348 347 348 348 348 348 348 348 346 346 346 345 345 344 344 343 342 341 340 340 340 339 338 338 337 335 335 334 332 330 328 327 326 325 325 326 329 331 333 333 332 331 325 327 325 323 322 322 322 326 329 335 341 341 341 340 339 339 338 339 339 338 337
333 335 334 333 334 338 342 346 348 350 351 352 352 351 350 349 349 348 347 347 346 347 348 348 347 348 348 348 348 348 346 346 346 345 345 344 343 342 341 340 339 339 339 338 338 337 337 335 336 334 332 329 327 326 325 325 325 324 327 330 332 332 329 327 320 324 323 319 320 319 320 322 324 339 338 338 338 337 337 338 338 337 338 338 338
333 335 336 335 335 334 339 343 346 349 350 352 352 351 350 349 349 348 348 348 347 348 348 348 347 348 349 348 348 347 346 346 346 345 345 344 343 341 341 339 338 337 336 336 336 336 335 336 335 333 331 329 327 325 324 323 323 325 326 328 330 328 325 323 323 320 321 318 320 320 319 323 321 340 335 336 335 335 334 335 335 336 336 336 335
333 334 335 335 335 335 334 340 342 345 347 349 350 349 350 349 349 349 348 348 348 348 348 349 348 349 349 348 348 346 346 346 345 344 344 344 343 341 340 339 338 336 336 335 334 333 333 333 334 331 330 328 326 324 322 321 322 323 325 328 329 326 322 311 314 314 316 317 317 318 319 322 338 334 334 334 333 334 333 330 333 333 334 334 333
329 332 332 334 333 332 334 335 338 340 342 345 347 347 348 348 348 349 348 348 348 348 348 348 348 348 348 349 347 347 346 346 345 344 345 344 342 341 340 339 338 336 335 334 333 332 331 335 332 330 328 327 325 323 322 321 321 321 324 327 326 324 321 316 312 311 312 315 316 317 318 321 336 333 332 332 332 330 332 331 330 331 331 333 332
324 328 332 333 333 334 336 338 337 335 336 338 340 343 344 346 347 348 347 347 347 347 347 347 347 347 348 347 347 345 345 346 345 345 344 343 341 342 340 338 337 335 333 333 332 331 331 332 330 328 327 325 324 322 320 318 320 321 324 325 325 323 320 316 311 309 312 315 314 316 317 323 333 334 333 332 331 331 330 329 330 329 329 328 329
318 327 332 333 333 335 337 340 340 340 341 337 334 337 340 343 345 345 344 344 345 346 345 344 345 345 344 342 341 340 341 343 343 343 342 341 342 341 341 338 336 334 332 332 331 331 331 331 329 328 326 325 322 322 320 317 319 319 321 324 324 322 319 314 308 308 312 317 311 315 317 333 333 333 334 333 332 331 330 328 329 329 328 327 328
316 323 329 331 333 334 337 339 339 342 342 341 341 339 335 338 340 341 341 342 342 341 341 341 340 340 339 338 337 336 335 336 336 337 339 336 335 333 336 338 334 333 332 331 331 331 332 330 329 327 326 324 322 321 319 317 318 318 320 321 320 318 316 310 305 305 308 310 313 312 316 332 331 332 332 331 331 330 329 328 328 328 326 327 328
312 322 327 329 332 334 336 338 340 341 341 341 342 342 334 332 337 339 338 339 339 338 338 338 334 333 333 332 331 333 331 333 329 333 332 334 331 327 332 336 338 333 332 331 330 330 329 330 328 327 325 323 322 319 315 316 316 317 318 318 316 312 304 302 302 304 304 309 313 309 324 330 331 331 330 330 329 329 328 327 326 326 326 327 327
315 319 325 329 330 332 334 337 339 340 341 341 342 343 341 331 332 332 333 334 335 334 335 332 328 327 327 327 326 330 329 331 330 332 326 330 323 324 329 334 336 335 335 332 330 329 329 329 328 326 325 324 319 316 314 316 316 315 316 315 310 302 300 301 301 305 304 307 309 309 328 329 329 330 329 329 329 328 326 326 326 327 327 327 326
309 311 319 326 330 331 333 335 337 339 341 341 342 342 342 335 339 339 336 334 331 330 332 331 327 327 324 328 331 329 328 329 330 328 330 328 324 322 324 329 334 333 332 334 332 330 329 329 327 326 325 321 314 297 295 304 309 311 311 309 298 297 298 299 300 300 302 304 307 314 329 329 327 329 329 328 328 327 328 327 327 327 326 326 326
312 311 311 320 328 331 333 334 335 338 339 340 341 342 342 339 339 341 338 333 332 330 332 330 327 326 326 328 329 332 330 330 330 328 328 322 325 320 323 326 331 330 330 331 333 334 330 328 327 325 323 316 297 292 290 288 287 302 301 294 294 296 297 297 297 297 301 305 305 317 328 330 328 328 328 328 328 327 327 327 327 326 325 325 325
308 311 314 311 321 329 332 333 334 336 338 339 339 341 341 340 340 338 339 339 338 336 334 333 332 330 330 329 328 329 330 329 324 322 323 325 323 319 321 323 325 325 324 326 328 329 331 329 327 323 311 299 293 292 290 286 288 290 291 291 292 294 296 297 297 296 298 304 303 316 326 330 330 329 328 328 328 327 326 327 326 326 326 325 324
306 308 309 312 316 325 330 332 333 335 336 338 337 339 339 339 341 340 337 337 337 336 334 335 333 332 331 329 327 327 327 328 326 324 324 323 321 320 320 321 320 319 320 319 317 318 315 310 305 304 296 296 294 291 289 287 288 290 292 291 293 293 295 297 295 296 297 298 302 315 323 326 330 329 328 328 326 326 326 327 326 325 324 325 325
301 303 306 310 312 319 328 331 333 334 335 337 337 338 337 338 338 340 338 335 334 337 339 336 333 331 330 328 326 325 325 324 323 323 322 322 320 319 320 319 318 317 316 317 315 314 311 307 304 301 295 293 291 290 291 291 287 287 289 291 291 292 293 293 293 294 296 294 299 313 320 322 326 330 329 327 325 325 327 327 325 325 324 325 325
298 300 302 306 310 312 318 328 331 332 334 336 337 337 337 338 337 337 339 338 334 332 332 333 335 332 328 326 325 326 325 323 321 320 320 321 321 319 318 317 317 317 314 316 314 310 310 308 304 298 294 294 293 291 290 288 287 288 289 290 291 291 292 293 293 293 294 294 298 309 315 319 324 327 330 328 327 326 326 326 325 324 324 324 324
299 302 302 301 305 310 314 322 328 331 332 334 335 336 335 336 335 335 335 335 335 334 333 329 329 332 330 326 327 325 323 320 322 321 319 319 318 317 316 316 316 314 312 314 313 310 309 307 304 297 297 294 295 292 291 290 288 288 290 290 290 290 289 291 293 293 293 294 295 301 310 317 320 323 327 331 331 326 326 327 325 325 324 324 323
300 302 304 304 304 306 310 316 323 328 331 333 334 334 335 335 334 332 333 328 333 333 331 331 329 327 327 325 322 322 322 322 321 321 319 319 318 316 315 315 314 315 315 314 314 311 310 308 305 301 296 295 294 293 292 291 289 289 290 290 290 290 289 290 291 292 292 293 294 298 309 314 317 320 323 327 331 333 327 326 325 326 325 323 324
299 301 302 305 308 307 308 314 316 324 328 331 332 332 332 333 331 332 332 330 330 325 325 327 327 326 326 325 323 322 322 321 318 316 318 318 318 317 317 316 315 314 314 315 312 312 310 306 304 302 298 296 296 293 293 291 290 290 289 291 290 290 289 289 289 292 292 293 293 296 304 309 313 317 320 323 326 330 332 327 326 325 325 325 324
298 299 300 303 308 311 310 310 313 316 322 328 329 330 330 331 331 331 330 328 327 326 325 324 325 323 322 321 322 320 318 320 319 317 317 317 316 316 316 315 315 314 314 315 311 312 309 309 307 304 299 296 295 291 292 292 290 290 290 290 290 289 289 289 289 290 291 292 292 292 295 304 309 313 316 320 323 327 330 331 331 326 326 325 324
297 298 299 301 306 310 312 311 311 313 319 322 323 327 328 328 327 330 330 329 327 328 324 325 324 324 322 319 319 321 318 318 317 317 316 316 316 316 315 315 315 312 311 311 309 307 308 304 302 299 296 296 296 293 291 292 291 290 288 289 288 289 289 289 289 289 290 291 291 291 292 296 302 309 312 316 321 324 326 328 330 326 326 326 325
297 297 298 299 301 307 311 311 312 312 314 317 321 322 324 325 327 328 329 327 329 328 328 328 324 323 321 321 318 317 316 317 316 316 315 316 316 314 313 314 312 309 307 307 307 305 305 302 299 296 295 295 296 295 293 291 290 291 289 289 288 289 288 288 290 289 290 291 291 291 291 292 294 302 306 310 314 319 323 326 327 329 329 326 326
295 297 298 298 300 302 308 310 310 311 311 313 313 318 320 320 320 322 321 323 323 322 320 320 320 319 319 318 317 316 316 315 314 313 314 314 312 313 311 312 310 307 306 305 305 304 303 300 298 297 299 297 297 295 294 297 294 289 289 288 288 288 287 289 288 289 288 290 290 289 291 292 292 294 296 304 309 313 319 323 325 326 327 328 329
295 295 296 297 298 300 303 307 309 310 310 312 314 314 315 316 317 317 317 318 318 319 318 319 319 319 318 318 316 315 315 314 313 313 311 311 310 310 309 310 308 307 307 305 306 302 302 303 300 300 296 294 293 292 293 293 292 293 291 289 290 289 287 288 287 288 288 289 290 289 290 291 293 294 295 295 301 306 312 318 322 324 325 326 327
293 294 295 297 297 298 300 302 306 309 310 311 313 314 314 314 314 312 314 314 314 314 315 315 316 316 317 316 315 315 315 314 313 314 313 312 312 311 310 308 307 307 306 304 305 304 302 302 300 302 301 299 295 297 291 291 290 291 289 289 289 289 288 287 288 288 289 287 289 289 290 291 293 292 298 296 296 299 308 313 317 322 324 324 324
293 293 294 295 296 297 298 299 301 305 309 310 311 311 311 311 310 310 310 310 311 311 311 312 312 313 313 313 313 313 313 313 313 312 313 312 312 311 309 308 307 307 306 304 305 304 303 303 300 299 301 300 296 295 294 289 290 290 288 287 287 288 288 288 288 288 289 288 287 287 289 291 291 299 294 294 296 296 301 308 313 317 317 316 319
293 293 293 294 294 295 296 297 298 301 304 306 307 307 306 305 305 304 304 304 305 307 308 308 307 308 309 310 311 311 310 310 310 311 311 310 310 309 307 307 306 306 305 304 304 302 303 303 303 297 296 298 297 296 296 293 289 289 289 288 287 287 287 287 288 291 288 288 287 287 289 289 290 292 293 294 293 295 295 300 307 310 309 311 316
292 292 292 293 294 294 295 295 296 297 299 302 303 303 302 302 302 301 301 301 301 301 302 302 303 303 304 305 307 308 307 308 308 309 309 309 308 307 306 305 305 305 305 303 302 301 300 300 300 301 294 294 295 294 293 291 290 288 288 288 287 287 287 286 289 288 287 288 288 290 287 289 289 291 293 292 292 292 294 296 296 297 298 306 312
291 292 292 292 292 293 293 294 294 295 297 298 300 300 299 298 298 298 297 297 298 297 297 297 298 298 299 300 302 302 303 304 305 306 306 306 306 305 305 304 304 305 304 303 302 301 300 299 299 298 299 295 293 291 289 290 288 286 288 289 287 287 287 287 287 287 288 287 288 287 288 288 288 290 290 291 293 293 293 294 294 295 297 300 307
291 291 291 291 291 291 292 291 293 294 295 295 296 296 297 296 295 294 293 294 295 295 295 294 294 294 294 295 296 296 297 298 300 301 301 301 301 301 301 302 302 302 300 299 298 298 297 298 296 296 297 296 295 289 290 290 289 291 287 285 286 286 288 288 288 288 287 287 286 286 287 288 288 288 289 290 291 292 292 293 294 295 296 294 297
289 290 290 290 290 291 291 291 292 293 293 293 294 294 294 294 294 293 292 292 292 292 291 292 292 292 292 292 292 293 293 293 294 296 296 297 297 298 297 297 297 298 298 296 295 294 293 292 293 294 292 295 294 290 292 292 291 289 288 287 286 287 285 285 286 287 287 286 287 287 287 287 288 288 286 287 289 290 291 292 292 293 294 295 295
288 289 289 290 290 290 290 290 291 291 292 293 293 293 293 293 293 292 292 291 292 292 291 291 292 291 291 291 291 291 291 291 291 292 293 293 294 295 295 295 294 295 295 295 294 294 293 292 291 292 292 289 289 290 291 293 292 286 287 287 286 286 289 284 283 284 287 287 285 286 287 286 287 286 286 285 287 288 289 289 290 291 293 294 294
287 288 288 288 289 289 289 290 290 290 291 292 293 292 293 292 292 292 292 292 290 291 291 290 290 290 289 289 289 290 290 290 290 290 290 291 291 292 292 293 293 293 292 293 293 293 292 292 291 290 290 290 291 290 290 291 290 290 290 287 284 282 286 286 281 284 281 284 285 286 285 287 287 286 285 286 286 285 287 287 289 290 291 292 292
286 286 287 288 288 288 289 289 289 290 290 291 291 291 291 291 291 291 291 290 289 289 288 287 287 287 287 286 287 288 288 288 288 289 289 289 289 290 290 291 291 291 292 292 291 291 291 291 291 291 290 289 289 289 288 288 289 291 291 286 287 286 283 282 283 289 281 285 284 284 285 286 286 285 285 286 285 286 286 286 287 288 288 289 290
285 285 286 287 287 287 288 288 289 289 289 290 290 290 290 289 289 288 286 285 284 284 284 284 284 284 284 285 286 286 286 286 286 287 287 288 288 288 289 289 289 290 290 290 291 291 290 290 290 289 289 289 289 287 286 288 288 290 290 289 290 288 286 284 284 284 283 283 284 282 283 284 284 285 285 285 286 286 286 286 286 286 287 287 288
284 285 285 285 285 286 286 287 287 287 288 288 289 289 287 287 286 285 285 284 283 283 284 284 284 284 285 284 285 285 285 285 285 286 286 286 286 287 287 288 288 288 289 289 289 289 289 289 289 289 288 290 288 287 287 288 287 287 288 289 288 287 285 285 284 284 283 284 282 282 286 282 283 283 285 286 286 286 286 286 286 286 286 286 286
283 283 284 284 284 284 284 285 285 286 286 286 286 287 286 285 284 284 284 283 283 282 283 283 284 284 284 284 284 284 285 285 285 285 285 285 286 285 285 286 286 287 287 287 288 288 289 289 289 288 288 288 287 286 286 286 286 287 286 286 286 287 286 285 285 284 283 281 284 282 282 284 282 283 284 285 285 286 286 285 286 286 286 286 286
283 283 283 283 283 283 283 284 284 284 284 285 285 285 285 284 283 283 283 283 283 283 283 284 283 284 283 283 283 284 284 284 284 284 284 285 285 285 284 284 285 285 285 286 286 286 287 287 287 288 287 287 287 286 286 286 286 286 285 285 284 285 284 283 283 284 283 282 283 284 285 282 282 283 283 284 285 285 286 286 286 286 286 286 286
282 283 282 282 282 282 283 283 282 283 283 283 284 283 283 284 283 282 282 281 282 282 282 282 282 283 282 282 283 283 283 283 284 284 284 284 284 284 284 284 284 284 285 284 284 284 285 285 286 286 286 286 286 286 286 286 286 285 285 285 284 283 283 282 282 281 281 282 281 283 283 283 283 284 283 284 284 285 285 286 285 285 285 286 286
281 281 282 282 281 282 282 282 282 282 283 283 283 283 283 283 282 282 282 281 281 282 282 281 281 282 281 281 281 282 282 282 283 283 283 283 283 283 283 283 283 284 283 283 283 283 284 284 284 285 285 285 285 285 286 285 285 284 284 285 284 284 284 283 283 283 283 282 282 282 284 285 284 284 285 285 286 286 285 285 285 285 285 286 286
Wind_Speed
8 6 6 11 11 12 15 15 14 13 13 13 12 12 12 12 11 10 9 9 10 10 10 9 9 9 8 8 8 8 8 8 8 8 8 7 7 7 7 8 9 9 9 11 12 14 13 12 12 13 13 12 12 11 11 12 12 12 12 12 12 12 12 12 12 12 11 11 11 12 11 11 11 12 12 13 13 12 12 12 11 7 5 7 11
10 8 6 7 12 12 15 15 15 14 13 13 12 12 12 11 11 10 10 9 8 9 9 8 8 9 9 8 8 8 8 8 7 7 7 7 7 7 7 8 9 9 10 11 12 13 13 13 13 12 12 11 11 11 11 11 11 11 11 11 11 11 11 11 11 11 11 11 11 10 10 10 11 11 12 13 14 14 12 12 12 6 4 10 12
5 6 7 8 12 11 13 15 16 15 14 13 13 12 11 11 10 10 10 10 9 8 8 8 9 9 8 8 8 8 8 8 7 7 6 7 7 7 6 8 10 10 11 12 12 14 14 13 12 12 12 11 11 11 12 11 11 11 11 11 10 10 9 9 9 10 10 10 10 10 10 9 9 11 12 12 13 13 12 12 11 10 7 12 12
9 7 7 9 12 11 12 13 14 15 14 13 13 12 12 11 10 10 10 9 9 9 8 8 8 9 8 8 8 8 7 7 7 7 7 7 7 6 6 7 10 10 12 12 13 14 13 13 13 12 12 12 11 11 11 11 11 10 10 10 9 9 8 8 8 8 8 8 8 8 4 4 5 9 10 11 11 12 12 12 12 12 12 12 13
8 7 8 8 9 10 12 12 13 13 13 13 13 12 12 11 11 10 11 10 10 10 9 9 8 8 8 7 7 7 7 7 7 7 7 7 7 7 6 7 10 10 11 12 13 13 12 12 12 12 12 12 11 11 11 10 10 10 10 9 8 7 7 7 7 7 6 6 6 6 4 4 4 5 9 10 11 10 11 13 12 13 14 14 15
8 7 8 8 8 8 12 12 13 13 13 13 13 13 13 11 11 11 10 10 10 10 10 10 9 9 8 7 8 7 7 7 7 7 7 8 8 7 7 6 9 9 9 10 11 12 11 11 11 11 12 11 11 11 11 11 10 10 9 8 7 6 6 6 6 6 5 5 6 3 3 4 4 4 10 10 10 10 10 12 12 12 13 14 14
8 7 8 8 7 7 11 13 14 13 14 14 13 12 13 12 12 12 10 10 10 10 10 10 10 9 9 8 8 7 7 8 8 8 9 8 8 8 7 7 9 9 7 9 10 10 10 9 9 10 11 11 11 11 10 10 10 10 9 8 7 6 5 5 5 4 5 4 3 2 3 3 3 2 9 9 10 12 12 12 13 13 13 13 14
4 6 7 8 7 8 10 12 14 13 15 14 14 13 13 13 12 11 11 11 10 10 10 10 10 9 8 8 8 8 7 7 6 7 8 9 8 8 8 7 7 9 8 8 9 8 7 8 8 9 10 11 11 11 10 10 10 9 8 7 7 6 5 5 4 4 6 3 3 3 3 3 3 3 9 11 11 12 13 12 12 12 13 13 11
6 5 6 7 6 11 11 11 13 15 15 15 13 13 13 13 11 11 11 11 11 11 11 10 10 9 8 8 8 7 7 7 8 9 9 9 9 8 8 8 7 8 7 9 8 8 7 7 7 8 9 10 10 10 10 10 9 8 8 8 7 6 5 5 5 6 4 3 3 3 3 3 3 3 8 12 12 13 12 9 9 11 12 11 10
5 5 6 6 6 11 11 11 13 15 15 14 13 13 14 14 12 12 12 11 11 11 11 10 10 9 9 8 7 7 7 8 9 10 10 10 10 9 8 8 7 8 6 5 7 7 6 6 6 7 8 9 9 9 9 9 8 8 7 7 7 6 6 6 6 5 3 3 3 3 2 3 2 2 7 11 12 11 10 7 5 5 5 9 9
5 5 5 5 6 11 12 12 12 14 15 13 13 13 14 14 13 13 13 12 12 12 11 11 10 10 9 8 7 7 8 9 10 11 11 10 10 8 7 7 7 6 7 7 4 4 4 4 5 7 9 9 8 8 9 8 8 7 7 7 7 6 6 6 6 3 4 3 3 3 3 3 1 1 7 8 9 9 8 7 5 5 6 7 8
6 4 4 4 7 11 12 13 12 13 13 12 13 14 14 14 13 13 13 13 13 13 12 11 10 10 9 8 8 8 9 9 9 10 10 9 9 8 7 5 4 5 6 5 6 5 3 1 5 9 9 9 8 8 8 8 7 7 6 7 6 7 7 7 4 4 4 3 3 2 2 2 1 3 6 7 7 7 7 7 7 7 7 7 6
6 5 4 4 4 9 12 13 12 12 12 12 13 16 15 14 13 13 13 12 13 12 12 10 10 9 9 8 8 9 9 10 10 10 10 10 8 7 5 5 4 4 4 3 6 7 6 5 6 9 9 9 8 8 8 7 7 6 6 6 6 7 7 7 3 4 4 3 3 2 2 1 1 2 3 4 5 6 6 6 7 7 7 7 7
5 5 4 4 4 7 11 11 12 12 12 12 13 14 14 13 13 13 13 12 12 12 11 10 10 9 8 8 9 9 10 11 9 10 9 9 8 7 7 5 5 3 3 4 5 5 5 8 9 8 9 9 8 8 7 6 6 6 6 6 6 7 7 6 5 4 3 3 3 3 3 1 1 3 2 4 3 4 4 4 5 5 5 6 6
6 5 5 4 4 4 9 10 10 11 11 11 12 12 13 12 12 12 11 11 11 10 10 9 9 8 7 8 8 9 10 10 9 9 8 7 7 6 6 6 4 3 3 4 4 3 5 3 9 9 9 8 8 7 7 6 6 6 6 5 6 6 6 3 3 3 3 3 3 3 3 3 3 1 2 2 2 3 4 3 3 3 5 4 4
2 3 3 4 3 4 5 7 9 9 9 9 10 11 12 12 12 11 11 11 10 10 9 8 8 7 7 6 7 10 10 10 10 8 7 6 6 5 5 5 4 2 2 3 3 3 3 9 8 8 8 7 7 6 6 6 5 5 6 5 6 6 6 4 4 3 3 3 3 3 3 3 6 1 1 3 3 2 2 3 2 2 2 3 3
3 3 3 4 3 4 5 5 6 8 8 8 9 10 11 11 11 12 11 10 10 9 9 8 7 6 6 5 6 6 6 7 8 6 6 5 5 4 4 3 3 1 1 2 3 2 2 7 8 7 7 7 7 5 5 5 5 5 6 5 6 6 6 5 4 3 3 3 3 4 3 3 5 5 3 2 2 2 1 1 2 2 2 2 2
2 4 4 3 3 3 4 5 6 6 5 6 7 9 9 10 10 10 11 10 9 9 8 7 7 6 4 3 4 6 7 5 7 6 5 4 4 4 3 3 2 1 1 1 2 3 4 7 6 7 6 6 5 5 5 4 4 5 5 5 6 6 6 5 3 3 3 3 4 3 4 4 5 4 3 3 2 2 1 1 2 1 2 2 2
2 4 4 4 5 3 4 5 5 5 5 5 4 7 10 9 9 9 9 9 9 8 7 6 6 5 4 3 5 7 6 5 6 7 6 5 5 5 3 3 1 1 1 1 2 2 6 6 6 6 5 4 4 4 4 4 3 4 5 5 5 6 6 4 3 3 3 3 3 3 3 5 2 2 2 2 1 1 1 1 0 1 1 1 2
2 3 3 3 3 4 4 5 5 6 5 4 5 4 7 9 9 10 9 9 8 8 7 6 6 4 4 6 7 6 6 5 5 6 7 6 6 4 4 2 1 2 1 1 1 1 2 6 4 4 4 3 3 5 5 4 2 4 5 5 5 5 3 2 2 3 3 2 2 2 5 6 3 2 2 2 3 1 1 1 1 1 1 2 2
4 2 2 1 2 4 5 4 5 6 6 5 5 5 6 9 7 9 11 10 9 8 7 7 5 4 4 4 4 2 2 3 4 4 7 5 5 5 3 2 2 2 2 1 1 1 1 4 3 3 3 5 7 6 6 8 5 5 5 5 4 3 2 2 2 2 2 2 2 2 5 5 4 5 2 1 1 1 0 1 1 2 2 1 2
4 2 1 3 2 2 3 4 4 6 6 5 4 4 4 7 6 5 6 8 8 8 6 4 4 3 3 4 3 2 4 3 3 4 4 5 5 5 3 1 2 3 3 2 2 2 2 3 2 3 3 7 7 4 4 6 8 7 5 4 2 2 1 2 2 2 2 1 2 3 5 4 3 3 1 1 2 1 3 2 1 2 2 1 1
5 4 3 2 3 3 3 5 4 5 6 5 4 4 4 4 6 7 5 7 6 5 5 4 3 3 3 3 3 4 4 5 5 4 4 6 6 6 3 1 1 2 2 2 2 2 3 2 2 2 8 7 4 3 3 4 5 7 5 3 2 1 1 1 1 1 0 1 2 5 6 5 4 4 3 3 3 2 2 3 2 1 1 1 1
4 5 5 3 3 4 5 4 5 5 6 5 4 4 4 4 4 2 6 6 6 7 5 4 4 4 4 3 3 4 4 4 5 7 5 3 4 5 5 2 1 3 2 2 3 2 2 2 4 8 6 4 3 3 3 3 4 4 4 3 2 1 0 0 0 0 1 2 2 6 6 7 5 4 3 3 2 2 3 3 3 1 1 2 1
6 7 6 5 4 5 4 5 4 5 6 5 4 4 4 5 6 5 2 3 5 4 3 5 6 6 5 4 4 3 1 4 5 4 4 4 3 3 2 3 2 2 3 1 1 1 3 3 3 4 3 3 2 2 3 4 3 4 5 5 3 2 2 1 1 1 1 2 2 5 6 7 8 4 4 4 4 4 4 4 2 2 2 3 4
5 5 6 7 4 4 6 4 5 5 6 5 5 4 4 4 4 7 5 1 2 5 9 9 6 5 5 6 5 3 4 3 3 5 5 5 4 3 4 4 2 2 1 1 1 1 2 3 3 3 2 3 3 2 3 3 4 5 5 5 5 3 4 3 3 3 3 3 3 6 7 7 8 7 5 5 4 4 5 3 3 4 3 4 5
7 6 6 6 5 3 4 5 6 5 6 5 4 4 4 4 4 3 8 7 4 1 2 2 8 9 5 5 5 5 6 5 3 2 3 3 5 5 4 3 2 3 2 3 1 1 2 2 2 2 2 2 2 2 2 3 3 3 4 4 4 4 4 5 4 4 4 4 4 7 7 8 8 8 6 6 5 5 6 6 6 4 4 5 5
4 7 6 6 6 5 4 5 5 5 4 5 4 4 4 4 3 5 2 5 8 8 5 3 1 3 9 5 3 7 5 3 5 6 6 4 3 3 3 2 1 2 3 2 2 1 1 2 2 2 2 1 1 1 2 2 2 2 2 4 4 4 4 5 5 4 5 4 4 6 8 9 9 9 9 7 8 7 6 9 7 6 6 5 4
10 10 8 7 6 5 3 4 3 4 4 4 4 3 4 4 4 1 4 3 3 2 0 3 3 4 2 1 4 4 3 3 5 7 6 6 5 5 4 3 4 6 5 5 6 6 5 4 3 3 1 1 0 0 0 1 1 1 1 2 3 4 4 3 3 4 4 4 5 6 8 9 10 10 10 10 10 11 8 9 9 9 8 5 8
10 8 8 8 7 5 1 1 2 3 3 4 4 3 3 4 2 3 2 1 1 1 2 2 1 2 5 5 0 2 6 6 4 2 6 5 4 3 2 2 3 3 3 3 2 2 3 3 2 2 1 1 1 0 0 1 2 1 0 1 3 3 3 3 3 3 3 4 4 5 8 9 10 11 11 11 12 12 13 9 10 11 9 8 8
9 10 9 8 7 7 7 2 2 2 2 2 2 2 3 3 3 3 2 2 3 4 4 1 1 2 2 6 6 2 2 5 6 6 4 5 5 5 4 2 2 3 3 1 1 0 1 1 2 2 2 1 1 1 1 3 3 3 2 2 3 2 3 2 2 3 3 3 3 3 4 7 9 10 11 11 12 12 13 13 12 12 10 10 7
10 11 8 7 8 9 7 7 3 4 4 4 3 3 3 3 3 3 1 1 2 4 1 0 1 2 2 0 3 5 4 3 3 4 4 4 5 5 3 4 4 2 2 1 2 2 3 2 2 2 1 1 0 1 1 2 4 4 3 4 3 3 4 3 3 3 3 3 3 3 3 4 6 8 9 11 11 12 13 13 14 13 11 11 10
7 8 9 8 9 8 8 8 6 5 4 4 5 4 4 4 4 2 3 5 6 6 7 5 2 0 1 2 2 4 4 4 3 2 2 3 4 4 3 5 3 3 2 3 3 3 3 3 2 2 1 1 0 2 1 1 2 4 3 4 3 4 3 4 4 4 4 4 3 2 3 3 3 6 8 8 10 11 12 12 12 14 11 13 12
7 7 8 11 8 6 6 7 8 8 7 5 4 5 4 5 4 4 4 4 4 4 5 6 7 6 5 7 6 6 5 5 3 1 2 3 3 3 3 3 2 3 3 3 3 3 3 2 2 1 1 1 3 2 2 5 3 2 3 3 3 3 2 4 4 4 4 4 4 3 3 3 3 3 4 7 8 9 11 11 12 12 11 12 12
8 9 11 9 9 9 7 7 9 9 9 9 8 7 7 7 7 6 6 6 6 6 5 5 6 5 6 6 6 5 5 5 5 4 4 3 1 0 1 2 2 2 3 2 3 2 2 2 3 2 1 2 2 3 1 3 4 6 5 3 4 4 3 3 3 4 4 4 4 4 3 3 3 4 4 4 6 8 9 10 10 10 11 11 11
10 9 8 8 11 10 10 10 10 11 11 10 9 9 10 9 9 9 9 10 9 9 9 9 8 8 7 7 7 6 6 5 4 5 4 3 3 5 4 3 3 2 2 2 2 2 2 2 2 2 2 5 2 4 1 4 3 5 4 4 4 3 4 4 5 5 5 3 4 4 3 4 3 3 4 4 5 5 9 9 9 9 9 8 8
8 10 10 9 11 11 11 12 11 10 11 12 13 12 11 12 11 11 11 11 11 10 9 8 9 10 8 7 5 5 5 4 5 6 6 5 4 4 4 5 4 4 3 2 1 1 1 1 1 1 1 3 2 4 4 3 4 4 4 4 4 4 5 5 5 6 4 4 4 4 4 4 3 4 4 4 5 5 7 8 9 9 8 7 7
8 9 8 9 8 8 9 10 9 9 8 10 10 11 11 11 11 10 11 12 11 9 9 10 11 10 11 10 11 11 10 9 8 7 7 6 6 7 6 6 4 4 3 3 4 5 4 4 4 3 3 2 3 4 5 4 3 5 5 5 5 5 6 6 5 4 4 6 4 4 5 4 4 5 5 5 4 4 5 7 9 9 8 7 8
8 9 9 9 9 9 9 11 11 9 8 8 8 9 10 10 10 11 12 11 10 11 10 11 9 10 10 11 12 11 11 11 10 9 8 8 8 7 6 4 2 3 4 4 3 3 3 2 3 3 2 1 3 3 4 4 5 4 5 7 5 6 6 5 5 6 6 6 5 5 3 6 4 5 5 4 4 4 5 6 6 6 6 8 8
9 9 11 12 11 10 8 11 10 8 7 8 7 8 10 10 11 11 13 11 11 11 12 11 10 11 11 12 12 11 11 11 11 10 10 9 8 6 6 5 5 6 5 5 4 3 2 2 1 1 3 2 0 1 2 3 3 4 7 6 5 6 6 6 5 7 6 5 6 4 6 5 5 6 4 4 5 5 5 5 5 6 6 7 9
11 11 12 12 12 9 11 12 8 9 9 9 9 8 8 8 11 12 10 9 9 10 12 10 11 10 12 12 12 11 11 11 11 10 10 9 8 8 8 8 6 6 5 4 3 3 1 1 1 0 1 2 1 1 0 1 3 6 3 4 6 4 7 5 6 7 7 6 4 6 6 5 6 5 6 5 5 5 5 5 5 5 6 5 7
11 11 12 10 9 10 11 8 8 10 10 8 7 9 7 7 10 8 10 9 11 11 10 10 10 10 13 13 11 11 12 12 10 10 10 9 9 8 8 8 7 7 5 4 4 4 3 3 2 2 1 0 1 0 0 0 2 2 6 8 6 6 4 2 6 6 5 5 5 5 6 6 7 6 3 3 5 4 5 5 5 5 5 5 6
8 9 8 10 10 10 9 9 9 9 8 7 9 9 7 7 9 6 9 9 8 7 9 7 9 11 12 12 11 11 11 11 11 11 10 10 9 9 9 7 8 7 8 8 7 7 6 4 4 3 4 1 1 1 0 1 3 1 2 3 4 11 5 4 2 3 6 6 4 5 4 4 8 4 3 3 6 5 4 4 5 5 6 6 6
9 9 10 10 8 9 9 10 10 9 9 9 7 7 8 7 9 10 11 11 8 6 9 10 11 14 13 11 12 10 11 11 11 10 9 10 10 9 8 9 9 8 7 7 8 8 8 7 6 4 2 4 3 3 1 0 1 3 5 1 3 1 9 2 4 6 2 4 3 5 3 7 7 4 2 5 5 4 6 4 5 6 6 6 5
9 9 9 8 7 9 8 9 9 9 9 9 8 5 6 7 6 7 7 8 10 11 12 12 10 9 10 12 10 10 11 11 11 11 10 10 10 9 9 8 9 9 8 8 8 7 6 5 6 6 5 3 5 3 2 1 1 0 1 3 4 2 2 5 9 10 2 1 2 3 4 4 5 4 4 6 6 6 6 5 6 5 7 7 6
9 8 6 7 7 8 9 9 10 10 10 9 9 11 11 10 11 12 12 11 12 12 12 9 9 10 9 5 10 11 10 11 11 11 11 10 11 10 9 10 10 9 8 7 7 9 9 9 8 5 6 5 2 3 3 3 0 2 2 3 3 4 6 5 6 9 3 3 7 3 4 4 4 5 5 6 7 7 5 7 5 7 7 6 6
6 4 5 7 7 8 8 10 10 9 9 9 9 11 13 12 13 12 10 11 12 8 5 5 7 6 7 10 9 10 11 12 11 11 11 10 10 10 10 9 9 9 8 9 10 8 6 6 6 8 6 5 5 5 6 6 5 2 1 3 3 3 2 3 5 6 14 3 1 4 6 4 4 4 6 7 7 6 7 6 7 7 7 6 6
4 4 6 6 8 8 9 10 9 10 9 8 11 10 13 11 12 12 11 11 10 8 6 7 6 7 10 10 9 9 10 11 11 11 11 11 10 10 9 9 9 9 8 8 8 7 8 7 7 5 5 6 5 5 4 5 4 5 4 5 4 3 3 3 4 6 6 11 15 2 4 7 4 5 5 7 7 7 8 6 7 7 7 7 7
4 5 6 6 5 6 9 10 12 10 9 10 12 11 11 11 10 9 11 8 7 7 6 6 8 7 11 9 9 9 9 10 10 11 11 11 10 10 10 10 10 8 7 7 7 7 7 7 9 9 8 7 5 3 3 5 4 4 6 4 4 4 3 3 3 3 4 6 13 10 10 2 4 5 7 7 7 7 7 8 7 7 6 7 7
4 4 5 5 6 6 9 12 11 9 8 10 11 11 10 10 11 10 11 7 6 6 7 9 8 7 10 9 8 9 8 9 9 9 10 9 9 9 9 10 10 9 8 8 8 9 8 7 6 6 6 7 5 5 4 4 4 3 2 3 3 4 4 2 1 2 3 6 10 12 11 13 15 5 3 5 8 7 8 7 7 6 7 7 7
4 5 6 6 5 6 9 13 8 8 8 10 11 11 10 10 11 10 10 9 7 8 10 10 8 9 10 9 8 7 7 8 7 8 9 9 8 8 8 8 7 8 9 9 9 8 8 7 7 7 7 7 6 7 6 4 3 4 4 3 3 3 3 3 6 6 4 5 7 9 10 11 12 17 5 6 6 8 7 6 6 7 8 8 8
Wind_Direction
231 202 185 194 191 184 173 173 171 170 168 167 166 163 159 157 156 151 151 144 142 140 135 136 132 126 124 125 124 120 111 104 100 89 83 84 88 82 76 90 100 100 98 94 95 85 84 81 74 69 65 62 62 59 55 56 53 54 56 60 59 60 60 54 51 46 41 37 39 35 41 64 64 64 65 65 65 59 55 58 58 54 52 52 65
186 205 188 190 190 184 177 176 173 174 173 170 170 166 165 162 158 158 156 151 150 144 140 139 135 134 129 126 126 122 115 110 101 90 85 86 86 80 76 92 98 98 87 84 81 85 79 72 71 68 64 60 56 52 51 50 51 53 56 57 59 60 56 54 51 44 39 34 31 30 27 40 60 60 61 59 58 58 53 55 51 51 50 57 60
168 183 183 189 188 184 180 178 175 176 177 173 173 170 166 166 163 159 161 158 152 154 146 149 144 140 135 131 132 129 124 116 107 101 93 91 87 75 75 94 97 88 84 82 81 77 76 75 68 66 61 56 49 45 42 41 43 44 46 49 51 51 51 50 46 41 36 35 31 30 24 15 47 68 70 68 64 60 57 56 53 50 53 56 56
160 179 177 185 188 187 180 181 176 177 179 177 174 170 169 168 161 162 163 159 159 154 155 157 151 147 143 140 138 134 131 127 120 117 114 100 90 81 83 87 95 97 91 86 81 79 75 74 71 67 63 57 52 47 40 35 34 39 42 43 41 42 43 40 34 36 38 37 35 36 25 19 10 71 74 72 68 65 63 58 56 58 58 57 55
164 167 176 180 184 190 182 182 178 181 179 179 175 172 170 166 161 163 166 163 162 161 162 163 158 154 149 146 143 137 134 131 131 129 120 113 103 98 94 96 99 100 91 84 84 80 76 70 68 65 62 57 53 48 45 40 33 29 37 39 39 36 34 31 26 30 44 50 47 41 27 21 12 25 78 78 73 68 66 63 59 57 54 53 54
164 165 172 179 182 190 184 184 178 179 182 182 176 174 171 161 165 171 170 168 171 165 167 168 165 158 158 157 157 157 152 145 146 139 129 121 115 111 108 106 108 104 93 94 83 79 73 68 63 62 60 57 52 45 41 37 34 31 29 33 35 33 26 23 22 27 60 72 69 46 29 32 30 15 75 76 79 68 66 63 64 60 57 54 50
164 163 168 177 182 187 187 181 180 180 181 184 182 178 175 168 170 175 174 173 176 172 175 173 172 166 167 170 168 163 163 159 157 152 134 124 118 115 112 112 109 107 109 94 89 79 67 63 61 57 58 53 48 43 37 33 29 28 28 26 27 28 20 12 29 46 78 81 74 51 47 40 31 11 74 75 70 76 70 61 58 57 57 55 50
154 166 171 175 179 188 187 181 182 181 186 187 183 181 178 172 174 177 178 179 179 177 184 179 177 175 177 177 174 175 166 163 163 138 135 124 116 109 100 94 98 111 109 93 79 69 67 63 62 60 59 52 44 39 34 30 24 23 25 24 20 30 26 19 42 78 89 87 78 67 52 44 36 18 77 73 71 64 62 61 59 57 56 56 54
168 176 172 175 181 184 188 184 182 183 188 189 182 183 182 179 177 177 183 182 183 183 187 184 186 183 185 188 185 177 166 164 151 145 139 129 119 113 106 103 110 106 94 81 82 79 77 75 72 69 64 55 46 39 33 27 24 22 25 22 20 31 32 47 80 89 84 76 77 70 66 56 49 59 74 77 70 65 64 58 50 59 61 59 58
166 175 177 173 181 187 187 187 185 186 188 190 183 183 184 180 177 179 185 185 188 187 190 189 191 189 194 196 191 175 163 159 152 149 142 128 121 111 103 91 81 72 73 97 86 93 96 94 86 85 67 56 46 37 33 25 21 23 25 27 26 30 45 66 84 72 72 74 73 70 74 75 42 56 80 76 72 70 69 70 74 70 64 63 59
166 177 177 180 181 187 189 191 188 188 191 189 183 185 187 181 179 182 187 188 191 192 194 194 196 195 201 201 193 175 161 158 155 153 137 139 127 120 105 94 80 67 65 64 89 102 92 113 98 91 76 65 51 37 29 23 18 20 27 30 34 43 58 75 74 58 58 65 63 40 40 67 70 103 78 74 73 68 64 58 48 51 51 54 50
170 174 182 180 185 189 191 193 193 189 192 188 184 187 189 184 181 187 188 191 194 194 197 198 201 203 205 204 187 174 164 168 155 145 142 142 139 129 117 101 86 67 46 42 26 17 343 83 110 97 83 71 55 42 30 19 17 22 26 35 44 56 64 66 65 63 61 56 58 43 37 35 23 99 93 78 69 67 60 48 42 35 39 39 39
172 172 177 180 185 195 194 194 195 192 193 191 188 191 189 186 185 189 191 194 197 196 199 201 205 209 209 212 183 175 170 171 159 151 143 143 141 129 129 116 97 71 45 21 14 17 354 358 63 95 81 68 55 43 35 24 19 25 28 39 51 61 66 67 66 70 60 54 56 35 34 2 319 124 101 81 65 52 43 51 43 38 39 40 42
162 175 176 177 188 198 198 199 197 195 195 192 189 190 186 186 190 191 191 196 200 199 200 202 208 212 214 217 192 182 176 175 171 157 156 153 149 147 138 124 102 87 66 356 324 348 4 350 85 80 74 68 53 41 38 21 17 26 32 40 56 63 60 58 60 67 63 52 49 40 28 358 323 296 74 88 74 59 47 40 44 34 28 32 35
165 177 179 175 182 196 203 204 203 200 199 195 190 186 186 186 188 191 192 196 203 205 204 203 208 214 218 218 198 194 181 185 180 164 164 163 168 165 149 135 115 83 10 334 320 347 344 41 88 76 68 59 54 42 30 21 17 25 31 37 57 62 64 65 60 55 57 52 34 41 26 6 317 159 131 115 85 71 52 20 24 43 35 9 15
177 176 172 185 183 189 199 213 210 206 205 201 194 189 189 186 184 188 193 197 202 206 207 210 212 216 219 216 203 193 192 189 185 171 163 162 178 167 152 138 128 79 342 322 318 344 340 86 82 74 67 58 43 40 34 18 25 30 32 35 54 64 63 70 67 51 43 42 29 34 18 5 23 175 231 99 96 115 78 45 2 11 356 6 33
141 168 187 191 186 188 195 203 208 212 210 208 198 193 191 189 184 189 194 197 202 207 209 208 219 223 229 226 202 198 205 196 189 169 153 152 167 150 142 138 122 54 355 324 330 333 64 97 87 76 66 57 51 34 31 20 21 34 41 42 55 65 57 61 65 46 38 36 33 18 5 5 39 55 59 92 85 83 84 0 16 345 351 319 328
159 159 193 191 195 197 195 198 202 207 207 208 207 197 195 191 188 191 196 197 199 205 210 209 216 229 238 213 174 181 210 207 176 151 146 145 146 124 114 133 135 132 60 351 318 302 91 99 89 80 64 58 56 42 26 17 26 36 46 53 62 68 63 67 66 39 37 39 24 8 11 4 53 51 47 55 85 82 37 302 318 15 348 333 357
164 173 189 184 199 191 197 198 203 202 201 196 198 204 195 192 190 193 198 199 197 201 204 205 209 219 221 196 170 180 209 203 176 146 139 142 131 121 116 90 142 148 154 331 295 301 101 99 89 77 70 52 48 45 26 19 31 45 56 62 64 61 63 61 61 47 39 34 15 14 345 3 15 50 39 22 337 320 0 42 25 47 333 10 53
175 179 188 196 194 194 197 197 200 205 201 191 194 193 198 195 193 194 195 198 199 200 200 203 199 199 197 204 183 189 195 190 177 144 144 134 120 123 119 93 113 148 167 233 302 343 106 104 95 82 79 68 50 45 25 0 34 53 67 76 66 69 60 53 61 53 33 21 10 2 341 355 333 259 262 278 289 298 63 30 236 209 178 136 126
30 7 336 268 222 206 205 199 200 204 203 195 192 193 184 192 197 197 194 194 197 202 202 199 194 194 183 186 197 189 186 156 170 154 145 137 129 130 118 107 106 105 122 193 170 135 161 112 101 80 76 69 69 50 26 9 19 39 59 70 74 63 63 71 60 54 42 18 8 336 338 336 321 277 273 270 214 193 249 161 190 212 217 149 144
332 326 332 320 259 239 227 213 206 208 205 198 194 187 175 185 187 198 203 205 196 194 191 185 182 179 184 182 167 151 142 146 159 146 144 140 143 137 135 161 129 116 133 133 169 186 211 136 124 99 83 85 63 44 18 3 4 12 35 59 59 67 48 69 68 30 20 350 0 325 339 321 262 259 233 220 191 173 205 188 199 212 211 210 74
327 329 303 233 248 222 208 213 216 211 209 203 194 187 174 167 193 187 198 194 199 199 190 174 162 167 165 156 156 166 157 133 146 153 153 151 148 152 157 77 30 105 126 138 155 162 167 194 136 121 91 70 59 45 26 8 359 356 14 23 49 43 43 46 43 37 5 328 319 329 335 333 255 242 210 216 212 204 220 216 262 344 10 212 177
285 277 277 273 224 228 208 205 205 204 206 208 192 181 181 167 181 196 177 184 194 195 199 192 177 167 165 152 152 164 158 135 138 135 124 126 138 145 145 167 146 128 102 98 54 75 154 139 99 88 79 76 70 47 28 2 1 352 360 14 17 5 21 7 14 356 342 330 305 325 337 336 313 241 228 216 235 207 230 225 216 227 256 273 201
290 299 302 266 222 209 212 203 195 196 204 207 199 191 174 175 187 195 195 189 169 180 181 186 177 169 159 153 153 133 139 151 145 140 140 128 119 121 115 90 71 62 59 95 58 46 57 81 69 74 75 87 71 44 40 1 355 357 351 350 1 352 344 346 343 334 335 333 312 330 338 332 335 287 234 234 237 226 237 238 228 227 237 240 241
315 318 288 292 258 213 203 196 190 195 197 202 203 186 170 180 186 173 166 197 237 227 195 176 169 160 157 161 142 127 123 111 142 153 157 149 133 135 126 121 106 96 58 112 71 77 82 87 100 106 88 88 87 80 69 53 4 349 348 344 349 343 334 327 337 328 325 335 321 332 334 334 322 328 285 246 243 238 245 239 237 238 255 276 270
339 318 310 299 298 262 220 194 197 192 195 190 187 179 186 179 179 202 183 217 258 281 326 275 170 155 154 146 153 178 158 147 126 115 131 176 169 146 125 113 128 158 144 143 105 51 95 107 108 114 102 92 87 74 65 70 63 14 341 336 340 339 332 323 328 323 327 335 322 331 329 326 320 316 304 273 245 242 250 245 248 256 246 255 266
335 338 332 316 303 281 228 208 196 188 189 180 182 178 169 156 170 169 237 194 197 252 224 168 0 186 161 168 221 177 155 148 165 163 146 109 121 132 134 129 65 55 61 91 130 111 97 104 124 113 117 90 98 67 70 65 69 77 5 331 330 327 328 321 319 319 323 323 325 322 326 323 320 316 312 300 284 259 241 259 259 264 245 245 259
4 353 337 341 327 300 282 218 202 183 174 171 183 162 150 149 133 134 174 168 229 214 304 326 184 148 112 135 162 164 164 159 176 165 159 158 147 138 127 151 169 189 171 177 172 180 182 168 165 155 135 138 100 65 71 52 69 88 82 314 318 313 313 318 312 313 317 323 325 318 322 323 322 319 312 304 297 301 270 248 264 250 256 241 254
352 338 350 348 343 331 351 274 202 171 148 161 163 147 149 146 123 133 89 169 244 135 127 129 322 206 161 148 135 269 161 141 158 168 158 166 142 129 175 195 207 167 163 175 163 153 175 163 151 138 156 180 238 319 59 3 355 11 60 295 287 276 281 287 299 300 302 313 317 320 322 325 324 321 318 316 308 302 306 273 250 258 258 253 252
347 357 356 352 344 14 12 11 121 123 113 127 127 126 109 122 114 93 98 96 84 27 347 49 122 263 196 153 143 130 308 158 160 163 154 152 167 169 178 148 197 195 190 222 43 8 92 134 171 184 184 209 296 25 16 337 336 335 357 327 290 310 290 278 281 285 295 292 307 314 316 322 324 321 321 315 307 303 300 307 294 258 258 262 255
359 353 349 336 5 20 25 18 48 96 89 62 64 85 87 91 80 105 93 346 13 307 153 117 317 264 48 37 142 157 168 247 166 160 150 153 168 175 172 183 207 151 136 116 125 110 134 124 111 112 114 117 78 7 39 353 324 319 340 327 325 318 305 304 296 291 283 284 291 302 313 309 315 319 319 317 310 310 308 308 310 283 262 266 253
351 343 337 354 14 9 29 30 39 52 84 94 86 70 69 71 113 141 180 203 216 205 244 241 210 199 28 124 134 136 150 160 173 156 146 125 123 131 156 207 191 132 128 129 126 122 113 116 88 86 89 91 20 293 349 22 308 302 332 306 335 316 314 321 306 312 307 299 294 296 298 298 304 312 316 313 316 312 308 302 301 314 295 262 262
347 345 351 14 1 7 20 39 42 52 51 50 59 66 59 62 36 32 17 8 6 5 8 14 28 33 39 39 31 21 15 22 31 51 91 143 136 146 176 207 128 134 124 125 131 141 143 139 144 118 184 223 257 275 331 300 292 296 299 294 315 279 292 308 307 300 299 291 291 303 297 303 303 304 301 307 308 310 307 302 306 302 305 320 306
1 2 9 356 11 18 16 44 41 55 53 55 59 59 55 53 43 38 35 35 41 40 27 35 41 32 44 45 40 40 46 48 41 62 39 20 20 14 353 26 87 108 120 125 137 135 133 166 148 186 258 286 282 296 290 276 293 299 289 303 289 293 294 283 294 287 286 283 293 285 291 294 294 298 298 300 303 304 306 311 309 303 307 305 307
12 0 359 5 23 20 22 45 43 54 59 63 63 64 66 65 62 53 45 38 34 37 31 29 24 37 34 37 33 46 50 52 58 52 53 46 38 26 19 40 52 66 68 75 107 141 144 158 188 178 224 266 298 290 306 280 288 282 285 293 288 305 303 305 294 285 260 275 285 296 296 286 283 282 289 292 296 298 303 309 305 303 304 315 315
11 10 9 12 24 18 23 33 36 44 61 68 70 69 68 64 62 57 57 53 45 39 38 35 40 42 35 41 45 55 62 70 65 59 65 52 49 50 44 51 39 40 43 53 46 42 125 195 260 338 311 297 289 282 303 290 292 286 301 300 298 301 287 263 260 257 279 273 276 281 284 275 270 280 277 278 284 289 301 299 304 306 313 317 313
19 17 16 22 23 20 26 29 28 30 45 62 71 76 74 72 66 63 58 58 51 45 40 39 37 32 32 31 31 33 31 32 36 41 52 48 47 47 42 42 47 51 58 43 31 26 20 9 342 28 4 336 307 304 296 314 303 303 303 294 291 285 270 270 261 270 267 275 263 259 254 268 283 270 263 262 263 284 288 292 297 302 307 305 298
22 20 25 26 30 27 30 31 27 22 29 41 57 68 72 74 71 63 56 53 47 44 37 42 34 37 34 31 35 35 32 32 32 34 43 40 42 40 44 40 74 96 77 64 51 45 41 34 5 344 38 351 303 315 299 314 313 308 294 282 281 270 272 274 279 270 258 248 250 249 238 251 243 255 257 255 268 271 272 276 283 290 291 293 298
25 24 30 31 29 29 31 36 28 19 34 45 43 57 61 53 60 55 51 42 46 44 41 40 34 37 27 32 34 35 32 34 34 34 40 39 41 38 43 34 36 47 51 44 36 45 42 16 0 308 318 318 230 317 359 331 304 297 282 290 277 277 275 258 266 258 259 251 247 249 247 247 236 249 245 242 246 248 255 265 274 275 281 289 294
29 26 34 30 29 25 37 33 16 27 41 44 45 48 57 65 60 60 65 48 48 48 47 36 41 37 33 35 34 33 31 34 31 35 37 40 41 36 36 30 28 41 47 47 34 40 61 84 78 104 281 349 328 73 121 127 343 305 310 302 307 266 257 266 259 267 257 258 253 244 250 256 254 253 244 231 234 239 243 254 260 268 276 282 287
20 26 32 26 28 31 40 32 25 36 37 40 59 62 56 78 93 84 81 62 51 47 43 36 36 37 36 32 32 30 34 35 31 34 39 36 36 34 33 28 26 28 38 38 31 37 42 40 26 8 38 329 281 246 240 36 351 341 333 324 313 310 297 266 258 270 290 278 252 251 257 245 259 254 285 281 271 261 249 242 248 260 264 268 272
31 32 25 34 32 35 35 37 33 36 34 33 51 62 66 66 82 87 85 84 71 77 71 55 45 46 41 35 31 30 30 34 29 31 36 31 32 35 27 22 29 20 27 25 23 23 18 23 31 25 334 351 284 315 92 110 274 242 229 312 321 344 327 342 343 285 269 267 259 260 278 288 269 272 262 262 264 268 272 266 262 257 255 254 259
35 31 28 33 36 36 37 40 41 39 37 33 48 55 68 78 75 85 80 78 82 77 71 55 46 44 40 36 36 31 33 36 31 32 37 37 34 34 28 29 25 24 28 32 25 21 13 13 12 20 43 342 353 331 19 153 154 355 333 16 275 98 315 316 315 288 277 267 259 261 255 256 260 287 316 270 275 281 267 264 259 258 261 260 256
36 33 26 31 39 39 41 49 49 47 45 41 43 51 63 60 71 81 85 83 56 49 49 42 42 47 48 38 33 34 38 41 36 34 35 35 34 33 35 31 33 25 26 31 28 19 20 21 14 12 17 359 338 338 333 17 260 113 315 330 334 338 231 281 336 299 348 10 288 254 265 274 288 291 259 261 256 251 250 252 250 252 252 248 250
38 25 23 31 41 44 47 51 57 52 49 48 52 62 60 61 54 51 50 55 55 44 44 40 37 40 45 44 44 40 40 44 39 38 36 35 35 31 32 32 30 27 27 32 29 23 18 18 10 15 12 16 348 344 328 329 288 274 182 195 186 267 314 308 354 304 323 221 276 316 276 259 260 262 254 260 260 258 241 250 246 253 250 250 250
28 15 33 41 45 51 52 55 56 54 48 52 55 69 67 65 69 73 75 70 78 59 57 51 59 51 53 47 44 40 39 41 39 38 36 35 37 35 34 36 35 30 21 29 28 21 10 18 8 25 20 11 25 11 348 326 337 324 331 272 270 236 186 315 281 322 311 319 137 319 302 291 265 252 261 252 260 265 257 240 251 247 250 245 248
8 29 50 46 51 52 60 61 60 58 49 56 62 63 78 73 73 71 68 69 72 82 64 63 60 58 56 45 42 40 37 39 37 35 33 33 33 35 33 36 38 33 31 33 25 7 10 11 18 19 28 34 28 30 341 348 18 306 348 328 310 303 240 228 232 243 273 301 302 265 253 281 285 272 259 267 261 252 261 251 248 248 245 244 240
21 42 51 48 49 54 65 67 63 60 52 56 66 63 74 79 80 79 76 64 73 75 78 66 63 53 60 45 45 39 37 37 38 35 31 30 30 29 28 32 34 31 32 31 27 24 22 14 9 10 9 8 24 10 28 346 359 323 343 329 343 318 322 256 246 200 244 292 289 304 304 303 299 258 262 250 262 258 248 252 244 244 244 245 236
24 35 48 56 53 59 66 68 60 59 57 62 70 70 74 83 83 80 85 80 76 76 69 62 55 48 56 47 41 39 33 33 31 34 33 30 30 27 28 28 26 23 26 24 22 23 20 17 15 9 8 15 5 11 5 332 341 321 336 306 335 327 334 340 3 330 285 211 267 298 306 312 309 288 229 264 256 252 249 246 250 241 242 243 238
44 47 50 52 57 66 73 70 59 58 57 62 68 70 68 70 78 80 82 82 71 69 66 56 53 49 51 42 39 34 34 34 27 28 30 25 27 29 28 26 26 24 23 21 18 14 9 9 7 11 20 19 7 359 357 353 347 339 332 341 304 295 273 291 291 293 280 294 299 286 301 301 297 302 279 251 257 256 252 244 240 241 238 240 241